781  
NZUS59 KLOT 292208  
HRRLOT  
 
CHICAGO AREA WEATHER ROUNDUP  
NATIONAL WEATHER SERVICE CHICAGO/ROMEOVILLE IL  
500 PM CDT WED MAR 29 2017  
 
NOTE: "FAIR" INDICATES FEW OR NO CLOUDS BELOW 12,000 FEET WITH NO  
SIGNIFICANT WEATHER AND/OR OBSTRUCTIONS TO VISIBILITY.  
 
* THESE STATIONS ARE NOT UNDER NWS QUALITY CONTROL. THEY ALSO MAY NOT  
REPORT WEATHER SUCH AS PRECIPITATION OR FOG.  
 
ILZ005-006-012>014-019>023-292300-  
NORTHEAST ILLINOIS  
 
CITY SKY/WX TMP DP RH WIND PRES REMARKS  
OHARE CLOUDY 47 35 63 NE20 30.09F  
MIDWAY LGT RAIN 49 35 58 NE17G24 30.08F  
AURORA CLOUDY 48 35 60 NE20 30.05F  
LANSING* CLOUDY 46 39 76 NE10 30.09F  
JOLIET* CLOUDY 49 39 70 E15G25 30.04F  
WAUKEGAN CLOUDY 41 34 76 NE15 30.12F  
DUPAGE AIRPORT LGT RAIN 47 36 65 NE16G26 30.05F  
WHEELING CLOUDY 45 36 70 NE12G20 30.13F  
KANKAKEE* CLOUDY 54 38 56 E15G24 30.04F  
MORRIS* CLOUDY 47 39 72 E16G22 30.02F  
LEWIS AIRPORT* CLOUDY 47 40 76 E18G25 30.04F  
NORTHERLY ISL N/A 42 36 79 NE21 N/A  

 
 
WIZ051-052-058>065-066-070>072-292300-  
SOUTHEAST WISCONSIN  
 
CITY SKY/WX TMP DP RH WIND PRES REMARKS  
MILWAUKEE CLOUDY 39 35 86 NE17G24 30.16F  
KENOSHA* CLOUDY 44 32 62 NE14 30.14F  
RACINE* CLOUDY 40 34 79 NE14 30.17F  
WAUKESHA CLOUDY 39 32 75 NE12G18 30.17F  
WEST BEND CLOUDY 41 34 75 NE9 30.19F  

 
 
INZ001>003-010>013-019-020-292300-  
NORTHWEST INDIANA  
 
CITY SKY/WX TMP DP RH WIND PRES REMARKS  
GARY* CLOUDY 46 36 66 NE14G26 30.11F  
MICHIGAN CITY* NOT AVBL  
RENSSELAER* NOT AVBL  
VALPARAISO LGT RAIN 52 40 63 E16 30.10F  

 
 
LMZ740>746-292300-  
SOUTHERN LAKE MICHIGAN  
 
STATION/POSITION TIME SKY/WX TEMP WIND PRES VSBY  
AIR DIR/SP/G  
(UTC) (F) (DEG/KT/KT) (MB) (MI)  
HARRISON CRIB 2140 43 60/ 22/ 24 N/A  
BURNHAM HARBOR 2200 42 40/ 16/ 18 N/A  
CALUMET HARBOR 2130 42 30/ 16/ 21 1019.2F  
BURNS HARBOR 2140 42 80/ 13/ 16 1020.3F  
MICHIGAN CITY 2140 42 50/ 11/ 12 N/A  

 
 
ABBREVIATIONS USED IN REMARKS  
TC - TEMPERATURE IN CELSIUS  
WCI - WIND CHILL INDEX  
HX - HEAT INDEX  
VSB - VISIBILITY  

 
 
 
CLICK HERE TO GO TO PREVIOUS BULLETINS.

The Nexlab IL Page
The Nexlab IN Page Main Text Page